ギャラッド彗星

P/2007 R4 ( Garradd )

English version
Home page
Total 6,336 html files since Dec. 4, 1995
Updated on April 12, 2008

---------------------------------------------------------------------

・ プロフィール

発見日 2007年9月14日
発見光度 18.4等
発見者 G. J. Garradd (Siding Spring Survey)

・ 軌道要素

The following orbital elements are taken from MPC 61437:

Epoch 2007 Sept. 17.0 TT = JDT 2454360.5
T 2007 Sept. 27.2913 TT                                 MPC
q   1.921385             (2000.0)            P               Q
n   0.0697057      Peri.  282.8746      +0.9235920      -0.1663723
a   5.847327       Node    87.5009      +0.3017065      +0.8712879
e   0.671408       Incl.   20.2260      -0.2365395      +0.4617117
P  14.1
From 77 observations 2007 Aug. 12-Nov. 25, mean residual 0".7.

・ 光度変化

        m1 = 15.0 + 5 logΔ + 10.0 log r

---------------------------------------------------------------------

軌道要素はMPCのEphemerides and Orbital Elementsに掲載されたものです。
光度グラフはComet for Windowsで作成したものです。

---------------------------------------------------------------------

Copyright(C) 1995-2008 Seiichi Yoshida (comet@aerith.net). All rights reserved.